Location: Arrodets-la-Barthe
(43.0306°N, 0.2829°E)
Time: 13:44:40
(UTC+00:00)

Okean 1-7 Rocket - Pass Details

Date: 24 October 2021
Orbit: 617 x 648 km, 82.5° (Epoch: 07 December)

Event Time Altitude Azimuth Distance (km) Brightness Sun altitude
Rises 17:52:30 0° 354° (N) 2,909 7.0 -9.9°
Reaches altitude 10° 17:54:45 10° 357° (N) 2,002 6.1 -10.3°
Maximum altitude 17:59:10 67° 80° (E) 681 3.5 -11.1°
Drops below altitude 10° 18:03:35 10° 164° (SSE) 2,004 6.1 -11.9°
Sets 18:05:50 0° 167° (SSE) 2,912 6.9 -12.3°
